NOAA 16 DEB

Satellite information

Favourite Embed

Satellite Type and Status

DEBRISIN ORBIT

Key statistics

Satellite NOAA 16 DEB at a glance.

Uptime

9158

Days in orbit

Revolutions

≈ 14.5

Per day

Orbit

SSO

Sun Synchronous Orbit

Inclination

98.8

Latest

Satellite identification and parameters

Extended collection of information and parameters for NOAA 16 DEB.

Object identification

Identified? True

Debris? True

Object name: NOAA 16 DEB

International designator: 2000-055MB

Object number (NORAD): 41503

Object ID (CCSDS): 41503

Country: UNITED STATES OF AMERICA (US)

Current information (Y/N): Y

RCS size: SMALL

Orbital parameters

Period: 99.009 minutes

Inclination: 98.7707 deg

SMA: 7089.407 km

Apoapsis: 728.313 km

Periapsis: 694.23 km

RAAN: 47.5399 deg

Eccentricy: 0.00240385

Argument of periapsis: 124.1679 deg

Mean anomaly: 236.18 deg

Mean motion: 14.54413653 rev/day

Mean motion (dot): 0.0001648 rev/day2

B* drag term: 0.0038633267 1/REarth

Two-line elements (TLE)

Creation date: Oct. 7, 2025, 4:22 a.m.

Reference frame: TEME

Reference center: EARTH

Epoch: Oct. 6, 2025, 1:50 p.m. UTC

TLE line 0: 0 NOAA 16 DEB

TLE line 1: 1 41503U 00055MB 25279.57701888 .00016480 00000-0 38633-2 0 9996

TLE line 2: 2 41503 98.7707 47.5399 0024038 124.1679 236.1800 14.54413653498992

Live tracking on map

Real-time ground track for satellite NOAA 16 DEB.

In-orbit conjunctions

A list of the most updated potential collisions computed for object NOAA 16 DEB.

Target Orbit TCA Probability of collision Miss distance Type
SL-14 DEB LEO 2025-08-15 06:26:34 0.0001106642 95.0 (m) DEBRIS
IRIDIUM 33 DEB LEO 2024-11-15 09:16:40 0.0007411585 166.0 (m) DEBRIS

Associated space launch

The NOAA K, L and M POES satellites begin the fifth generation of improved environmental monitoring in support of NOAA missions. The instrument payload has significant improvements and additions/deletions. The instrument changes have effected the spacecraft subsystems and data formats.

NOAA 16 DEB was lifted into orbit during the mission ‘Titan II SLV | NOAA 16’, on board a Titan II SLV space rocket.

The launch took place on Sept. 21, 2000, 10:22 a.m. from Space Launch Complex 4W.

For more information about the launch, click the button.

Launch to space Titan II SLV | NOAA 16
Titan II SLV | NOAA 16

Agency: N/A

Status: Launch Successful

Launch date: Sept. 21, 2000, 10:22 a.m. UTC

Rocket: Titan II SLV

Launch pad: Space Launch Complex 4W

Location: Vandenberg SFB, CA, USA

...

Latest news about this satellite

There are no fresh news available about this satellite. Check back as we update our databases every day.


Newsletter sign-up

Weekly statistics, charts and insights to help you stay on top of the space industry.